| time (UTC) | temp F | wind direction | speed knots | gust knots | rain 1hr in | rain 24hr in | rain mn in | humidity % | barometer mb |
| 20260507180456 | 48 | 230 | 5.2 | 12.2 | 0.00 | 0.00 | 0.00 | 47 | 1012.2 |
| 20260507175955 | 49 | 220 | 6.1 | 11.3 | 0.00 | 0.00 | 0.00 | 52 | 1012.2 |
| 20260507175456 | 48 | 289 | 8.7 | 11.3 | 0.00 | 0.00 | 0.00 | 58 | 1012.2 |
| 20260507174956 | 45 | 270 | 7.0 | 9.6 | 0.00 | 0.00 | 0.00 | 58 | 1012.2 |
| 20260507174455 | 45 | 264 | 7.8 | 11.3 | 0.00 | 0.00 | 0.00 | 57 | 1012.2 |
| 20260507173956 | 45 | 266 | 7.0 | 11.3 | 0.00 | 0.00 | 0.00 | 58 | 1012.2 |
| 20260507173456 | 45 | 252 | 9.6 | 10.4 | 0.00 | 0.00 | 0.00 | 63 | 1012.2 |
| 20260507172525 | 45 | 291 | 7.8 | 13.0 | 0.00 | 0.00 | 0.00 | 59 | 1012.2 |
| 20260507171956 | 45 | 267 | 9.6 | 13.0 | 0.00 | 0.00 | 0.00 | 60 | 1012.2 |
| 20260507171455 | 45 | 274 | 9.6 | 16.5 | 0.00 | 0.00 | 0.00 | 55 | 1012.2 |
| 20260507170957 | 46 | 242 | 4.3 | 10.4 | 0.00 | 0.00 | 0.00 | 54 | 1012.2 |
| 20260507170455 | 47 | 272 | 5.2 | 7.8 | 0.00 | 0.00 | 0.00 | 52 | 1012.2 |
| 20260507165955 | 48 | 258 | 7.8 | 10.4 | 0.00 | 0.00 | 0.00 | 54 | 1012.2 |
| 20260507165456 | 49 | 275 | 5.2 | 8.7 | 0.00 | 0.00 | 0.00 | 56 | 1012.2 |
| 20260507164955 | 47 | 323 | 7.0 | 8.7 | 0.00 | 0.00 | 0.00 | 59 | 1012.5 |
| 20260507164456 | 45 | 235 | 7.8 | 11.3 | 0.00 | 0.00 | 0.00 | 57 | 1012.5 |
| 20260507163956 | 44 | 257 | 7.8 | 11.3 | 0.00 | 0.00 | 0.00 | 60 | 1012.5 |
| 20260507163455 | 44 | 252 | 9.6 | 12.2 | 0.00 | 0.00 | 0.00 | 60 | 1012.5 |
| 20260507162958 | 44 | 249 | 7.8 | 9.6 | 0.00 | 0.00 | 0.00 | 60 | 1012.5 |
| 20260507162455 | 44 | 229 | 8.7 | 9.6 | 0.00 | 0.00 | 0.00 | 59 | 1012.9 |
| 20260507161958 | 45 | 255 | 9.6 | 12.2 | 0.00 | 0.00 | 0.00 | 57 | 1012.9 |
| 20260507161457 | 46 | 264 | 10.4 | 12.2 | 0.00 | 0.00 | 0.00 | 58 | 1012.9 |
| 20260507160958 | 46 | 216 | 5.2 | 12.2 | 0.00 | 0.00 | 0.00 | 57 | 1012.9 |
| 20260507160455 | 46 | 260 | 8.7 | 11.3 | 0.00 | 0.00 | 0.00 | 59 | 1012.9 |
| 20260507155955 | 45 | 261 | 7.8 | 9.6 | 0.00 | 0.00 | 0.00 | 65 | 1012.9 |
| 20260507155456 | 44 | 278 | 7.0 | 11.3 | 0.00 | 0.00 | 0.00 | 65 | 1012.9 |
| 20260507154956 | 43 | 303 | 8.7 | 12.2 | 0.00 | 0.00 | 0.00 | 62 | 1013.2 |
| 20260507154455 | 45 | 244 | 8.7 | 12.2 | 0.00 | 0.00 | 0.00 | 61 | 1013.2 |
| 20260507153955 | 47 | 304 | 7.8 | 10.4 | 0.00 | 0.00 | 0.00 | 60 | 1013.2 |
| 20260507153456 | 46 | 239 | 7.8 | 13.0 | 0.00 | 0.00 | 0.00 | 64 | 1013.2 |
| 20260507152956 | 46 | 282 | 7.0 | 13.0 | 0.00 | 0.00 | 0.00 | 63 | 1013.2 |
| 20260507152456 | 45 | 280 | 8.7 | 12.2 | 0.00 | 0.00 | 0.00 | 69 | 1013.2 |
| 20260507151956 | 44 | 273 | 9.6 | 11.3 | 0.00 | 0.00 | 0.00 | 66 | 1013.2 |
| 20260507151456 | 44 | 277 | 7.8 | 11.3 | 0.00 | 0.00 | 0.00 | 69 | 1013.2 |
| 20260507150955 | 44 | 294 | 6.1 | 8.7 | 0.00 | 0.00 | 0.00 | 69 | 1013.2 |
| 20260507150457 | 43 | 295 | 6.1 | 8.7 | 0.00 | 0.00 | 0.00 | 72 | 1013.2 |
| 20260507145956 | 43 | 273 | 6.1 | 11.3 | 0.00 | 0.00 | 0.00 | 67 | 1013.2 |
| 20260507145455 | 43 | 306 | 8.7 | 11.3 | 0.00 | 0.00 | 0.00 | 70 | 1013.2 |
| 20260507144956 | 43 | 286 | 7.8 | 9.6 | 0.00 | 0.00 | 0.00 | 71 | 1013.2 |
| 20260507144456 | 42 | 15 | 7.0 | 9.6 | 0.00 | 0.00 | 0.00 | 70 | 1013.2 |
| 20260507143955 | 42 | 267 | 7.0 | 8.7 | 0.00 | 0.00 | 0.00 | 69 | 1013.2 |
| 20260507143456 | 42 | 285 | 6.1 | 8.7 | 0.00 | 0.00 | 0.00 | 70 | 1013.2 |
| 20260507142956 | 42 | 288 | 7.8 | 9.6 | 0.00 | 0.00 | 0.00 | 71 | 1013.2 |
| 20260507142502 | 42 | 255 | 6.1 | 8.7 | 0.00 | 0.00 | 0.00 | 73 | 1013.2 |
| 20260507141956 | 42 | 270 | 4.3 | 7.8 | 0.00 | 0.00 | 0.00 | 74 | 1013.2 |
| 20260507141456 | 41 | 236 | 6.1 | 8.7 | 0.00 | 0.00 | 0.00 | 72 | 1013.2 |
| 20260507140513 | 40 | 256 | 6.1 | 8.7 | 0.00 | 0.00 | 0.00 | 74 | 1013.2 |
| 20260507135957 | 40 | 239 | 6.1 | 7.0 | 0.00 | 0.00 | 0.00 | 77 | 1013.2 |
| 20260507135455 | 39 | 263 | 6.1 | 7.8 | 0.00 | 0.00 | 0.00 | 76 | 1013.5 |
| 20260507134956 | 39 | 245 | 6.1 | 7.8 | 0.00 | 0.00 | 0.00 | 76 | 1013.2 |
| 20260507134456 | 39 | 224 | 5.2 | 7.8 | 0.00 | 0.00 | 0.00 | 78 | 1013.2 |
| 20260507133956 | 39 | 219 | 5.2 | 7.8 | 0.00 | 0.00 | 0.00 | 78 | 1013.5 |
| 20260507133455 | 38 | 231 | 7.0 | 7.8 | 0.00 | 0.00 | 0.00 | 79 | 1013.5 |
| 20260507132956 | 38 | 220 | 6.1 | 7.8 | 0.00 | 0.00 | 0.00 | 79 | 1013.5 |
| 20260507132456 | 38 | 237 | 6.1 | 7.8 | 0.00 | 0.00 | 0.00 | 79 | 1013.5 |
| 20260507131956 | 37 | 230 | 7.0 | 7.8 | 0.00 | 0.00 | 0.00 | 79 | 1013.5 |
| 20260507131456 | 37 | 249 | 6.1 | 8.7 | 0.00 | 0.00 | 0.00 | 80 | 1013.5 |
| 20260507130956 | 37 | 242 | 6.1 | 7.8 | 0.00 | 0.00 | 0.00 | 79 | 1013.5 |
| 20260507130456 | 37 | 236 | 7.8 | 9.6 | 0.00 | 0.00 | 0.00 | 79 | 1013.2 |
| 20260507125955 | 37 | 218 | 7.0 | 8.7 | 0.00 | 0.00 | 0.00 | 80 | 1013.2 |
| 20260507125455 | 37 | 218 | 7.0 | 7.8 | 0.00 | 0.00 | 0.00 | 81 | 1013.2 |
| 20260507124955 | 37 | 206 | 7.0 | 7.8 | 0.00 | 0.00 | 0.00 | 81 | 1013.2 |
| 20260507124456 | 37 | 222 | 7.0 | 7.8 | 0.00 | 0.00 | 0.00 | 81 | 1013.2 |
| 20260507123956 | 37 | 231 | 6.1 | 7.8 | 0.00 | 0.00 | 0.00 | 80 | 1013.2 |
| 20260507123455 | 36 | 224 | 6.1 | 7.0 | 0.00 | 0.00 | 0.00 | 82 | 1013.2 |
| 20260507122955 | 36 | 223 | 6.1 | 7.0 | 0.00 | 0.00 | 0.00 | 82 | 1013.2 |
| 20260507122455 | 36 | 210 | 6.1 | 7.8 | 0.00 | 0.00 | 0.00 | 82 | 1013.2 |
| 20260507121957 | 36 | 222 | 5.2 | 7.0 | 0.00 | 0.00 | 0.00 | 83 | 1013.2 |
| 20260507121455 | 36 | 208 | 5.2 | 7.0 | 0.00 | 0.00 | 0.00 | 84 | 1013.2 |
| 20260507120955 | 35 | 227 | 5.2 | 6.1 | 0.00 | 0.00 | 0.00 | 84 | 1013.2 |
| 20260507120455 | 35 | 218 | 5.2 | 6.1 | 0.00 | 0.00 | 0.00 | 84 | 1013.2 |
| 20260507115956 | 35 | 221 | 4.3 | 6.1 | 0.00 | 0.00 | 0.00 | 85 | 1013.2 |
| 20260507115456 | 35 | 219 | 4.3 | 5.2 | 0.00 | 0.00 | 0.00 | 85 | 1013.2 |
| 20260507114955 | 35 | 223 | 4.3 | 5.2 | 0.00 | 0.00 | 0.00 | 84 | 1013.2 |
| 20260507114457 | 35 | 238 | 4.3 | 5.2 | 0.00 | 0.00 | 0.00 | 85 | 1013.2 |
| 20260507113955 | 35 | 213 | 4.3 | 5.2 | 0.00 | 0.00 | 0.00 | 86 | 1013.2 |
| 20260507113456 | 35 | 222 | 3.5 | 4.3 | 0.00 | 0.00 | 0.00 | 85 | 1013.2 |
| 20260507112956 | 35 | 216 | 4.3 | 5.2 | 0.00 | 0.00 | 0.00 | 85 | 1013.2 |
| 20260507112456 | 35 | 223 | 4.3 | 5.2 | 0.00 | 0.00 | 0.00 | 86 | 1013.2 |
| 20260507111955 | 35 | 213 | 5.2 | 5.2 | 0.00 | 0.00 | 0.00 | 86 | 1013.2 |
| 20260507111456 | 35 | 208 | 3.5 | 5.2 | 0.00 | 0.00 | 0.00 | 87 | 1013.2 |
| 20260507110956 | 35 | 233 | 3.5 | 5.2 | 0.00 | 0.00 | 0.00 | 87 | 1013.2 |
| 20260507110455 | 35 | 209 | 4.3 | 7.0 | 0.00 | 0.00 | 0.00 | 85 | 1013.2 |
| 20260507105955 | 35 | 204 | 6.1 | 7.0 | 0.00 | 0.00 | 0.00 | 84 | 1013.2 |
| 20260507105455 | 35 | 203 | 4.3 | 6.1 | 0.00 | 0.00 | 0.00 | 85 | 1013.2 |
| 20260507104955 | 35 | 193 | 4.3 | 6.1 | 0.00 | 0.00 | 0.00 | 84 | 1013.2 |
| 20260507104455 | 35 | 202 | 4.3 | 7.0 | 0.00 | 0.00 | 0.00 | 84 | 1013.2 |
| 20260507103956 | 35 | 208 | 4.3 | 7.0 | 0.00 | 0.00 | 0.00 | 83 | 1013.2 |
| 20260507103456 | 35 | 192 | 5.2 | 6.1 | 0.00 | 0.00 | 0.00 | 84 | 1013.2 |
| 20260507102955 | 35 | 208 | 4.3 | 6.1 | 0.00 | 0.00 | 0.00 | 84 | 1013.2 |
| 20260507102455 | 35 | 192 | 4.3 | 6.1 | 0.00 | 0.00 | 0.00 | 84 | 1013.2 |
| 20260507101955 | 35 | 201 | 5.2 | 6.1 | 0.00 | 0.00 | 0.00 | 83 | 1013.2 |
| 20260507101455 | 35 | 205 | 5.2 | 6.1 | 0.00 | 0.00 | 0.00 | 83 | 1013.2 |
| 20260507100955 | 35 | 186 | 4.3 | 6.1 | 0.00 | 0.00 | 0.00 | 83 | 1013.2 |
| 20260507100455 | 35 | 208 | 5.2 | 6.1 | 0.00 | 0.00 | 0.00 | 83 | 1013.2 |
| 20260507095955 | 35 | 202 | 5.2 | 6.1 | 0.00 | 0.00 | 0.00 | 83 | 1013.2 |
| 20260507095455 | 35 | 196 | 4.3 | 5.2 | 0.00 | 0.00 | 0.00 | 84 | 1013.2 |
| 20260507094956 | 35 | 190 | 4.3 | 5.2 | 0.00 | 0.00 | 0.00 | 84 | 1013.2 |
| 20260507094455 | 35 | 204 | 3.5 | 5.2 | 0.00 | 0.00 | 0.00 | 84 | 1013.2 |
| 20260507093956 | 35 | 193 | 4.3 | 5.2 | 0.00 | 0.00 | 0.00 | 84 | 1013.2 |
| 20260507093455 | 35 | 209 | 4.3 | 5.2 | 0.00 | 0.00 | 0.00 | 84 | 1013.2 |
| 20260507092956 | 35 | 195 | 4.3 | 5.2 | 0.00 | 0.00 | 0.00 | 85 | 1013.2 |
| 20260507092455 | 35 | 230 | 4.3 | 6.1 | 0.00 | 0.00 | 0.00 | 83 | 1013.2 |
| 20260507091955 | 35 | 214 | 4.3 | 6.1 | 0.00 | 0.00 | 0.00 | 82 | 1013.2 |
| 20260507091455 | 35 | 192 | 5.2 | 6.1 | 0.00 | 0.00 | 0.00 | 82 | 1013.2 |
| 20260507090955 | 35 | 195 | 4.3 | 5.2 | 0.00 | 0.00 | 0.00 | 82 | 1013.2 |
| 20260507090455 | 35 | 201 | 4.3 | 5.2 | 0.00 | 0.00 | 0.00 | 82 | 1013.2 |
| 20260507085955 | 35 | 207 | 4.3 | 5.2 | 0.00 | 0.00 | 0.00 | 83 | 1013.2 |
| 20260507085455 | 35 | 206 | 4.3 | 5.2 | 0.00 | 0.00 | 0.00 | 83 | 1013.2 |
| 20260507084957 | 35 | 204 | 5.2 | 5.2 | 0.00 | 0.00 | 0.00 | 83 | 1013.2 |
| 20260507084455 | 34 | 210 | 4.3 | 5.2 | 0.00 | 0.00 | 0.00 | 83 | 1013.2 |
| 20260507083955 | 34 | 195 | 3.5 | 5.2 | 0.00 | 0.00 | 0.00 | 84 | 1013.2 |
| 20260507083455 | 34 | 220 | 3.5 | 4.3 | 0.00 | 0.00 | 0.00 | 86 | 1013.2 |
| 20260507082956 | 34 | 201 | 3.5 | 3.5 | 0.00 | 0.00 | 0.00 | 87 | 1013.2 |
| 20260507082457 | 34 | 179 | 2.6 | 2.6 | 0.00 | 0.00 | 0.00 | 87 | 1013.2 |
| 20260507081956 | 34 | 166 | 2.6 | 4.3 | 0.00 | 0.00 | 0.00 | 85 | 1013.2 |
| 20260507081455 | 34 | 213 | 3.5 | 4.3 | 0.00 | 0.00 | 0.00 | 82 | 1013.2 |
| 20260507080955 | 34 | 196 | 3.5 | 4.3 | 0.00 | 0.00 | 0.00 | 82 | 1013.2 |
| 20260507080455 | 34 | 185 | 3.5 | 4.3 | 0.00 | 0.00 | 0.00 | 82 | 1013.2 |
| 20260507075955 | 34 | 192 | 3.5 | 4.3 | 0.00 | 0.00 | 0.00 | 83 | 1013.2 |
| 20260507075455 | 34 | 212 | 3.5 | 4.3 | 0.00 | 0.00 | 0.00 | 83 | 1013.2 |
| 20260507074958 | 34 | 199 | 2.6 | 3.5 | 0.00 | 0.00 | 0.00 | 84 | 1013.2 |
| 20260507074456 | 34 | 198 | 3.5 | 3.5 | 0.00 | 0.00 | 0.00 | 84 | 1013.2 |
| 20260507073955 | 34 | 202 | 2.6 | 3.5 | 0.00 | 0.00 | 0.00 | 85 | 1013.2 |
| 20260507073455 | 33 | 214 | 3.5 | 3.5 | 0.00 | 0.00 | 0.00 | 86 | 1013.5 |
| 20260507072956 | 33 | 211 | 3.5 | 4.3 | 0.00 | 0.00 | 0.00 | 87 | 1013.5 |
| 20260507072455 | 33 | 215 | 3.5 | 4.3 | 0.00 | 0.00 | 0.00 | 88 | 1013.5 |
| 20260507071956 | 33 | 218 | 3.5 | 3.5 | 0.00 | 0.00 | 0.00 | 88 | 1013.5 |
| 20260507071455 | 33 | 223 | 3.5 | 3.5 | 0.00 | 0.00 | 0.00 | 88 | 1013.5 |
| 20260507070955 | 33 | 216 | 2.6 | 3.5 | 0.00 | 0.00 | 0.00 | 90 | 1013.5 |
| 20260507070456 | 32 | 224 | 1.7 | 2.6 | 0.00 | 0.00 | 0.00 | 89 | 1013.5 |
| 20260507065956 | 32 | 238 | 2.6 | 2.6 | 0.00 | 0.00 | 0.00 | 88 | 1013.5 |
| 20260507065455 | 32 | 204 | 2.6 | 2.6 | 0.00 | 0.00 | 0.00 | 89 | 1013.5 |
| 20260507064956 | 32 | 180 | 1.7 | 2.6 | 0.00 | 0.00 | 0.00 | 90 | 1013.5 |
| 20260507064456 | 32 | 162 | 0.9 | 2.6 | 0.00 | 0.00 | 0.00 | 89 | 1013.9 |
| 20260507063955 | 32 | 160 | 0.9 | 4.3 | 0.00 | 0.00 | 0.00 | 90 | 1013.9 |
| 20260507063459 | 32 | 189 | 3.5 | 4.3 | 0.00 | 0.00 | 0.00 | 90 | 1013.9 |
| 20260507062955 | 31 | 175 | 3.5 | 4.3 | 0.00 | 0.00 | 0.00 | 90 | 1013.9 |
| 20260507062455 | 31 | 179 | 1.7 | 2.6 | 0.00 | 0.00 | 0.00 | 89 | 1013.9 |
| 20260507061955 | 30 | 162 | 0.0 | 2.6 | 0.00 | 0.00 | 0.00 | 89 | 1013.9 |
| 20260507061455 | 30 | 160 | 2.6 | 2.6 | 0.00 | 0.00 | 0.00 | 89 | 1013.9 |
| 20260507060955 | 30 | 166 | 2.6 | 3.5 | 0.00 | 0.00 | 0.00 | 89 | 1014.2 |
| 20260507060456 | 30 | 171 | 2.6 | 3.5 | 0.00 | 0.00 | 0.00 | 89 | 1014.2 |
| 20260507055955 | 30 | 165 | 1.7 | 2.6 | 0.00 | 0.00 | 0.00 | 87 | 1014.2 |
| 20260507055455 | 31 | 167 | 1.7 | 2.6 | 0.00 | 0.00 | 0.00 | 86 | 1014.2 |
| 20260507054955 | 31 | 170 | 1.7 | 2.6 | 0.00 | 0.00 | 0.00 | 86 | 1014.2 |
| 20260507054455 | 31 | 163 | 0.9 | 1.7 | 0.00 | 0.00 | 0.00 | 86 | 1014.2 |
| 20260507053955 | 32 | 180 | 0.9 | 1.7 | 0.00 | 0.00 | 0.00 | 86 | 1014.2 |
| 20260507053455 | 32 | 172 | 0.0 | 0.9 | 0.00 | 0.00 | 0.00 | 86 | 1014.2 |
| 20260507052956 | 32 | 180 | 0.0 | 1.7 | 0.00 | 0.00 | 0.00 | 85 | 1014.2 |
| 20260507052012 | 32 | 210 | 1.7 | 2.6 | 0.00 | 0.00 | 0.00 | 84 | 1014.6 |
| 20260507051455 | 33 | 207 | 2.6 | 2.6 | 0.00 | 0.00 | 0.00 | 83 | 1014.6 |
| 20260507050956 | 33 | 228 | 1.7 | 2.6 | 0.00 | 0.00 | 0.00 | 82 | 1014.6 |
| 20260507050456 | 34 | 226 | 3.5 | 3.5 | 0.00 | 0.00 | 0.00 | 80 | 1014.6 |
| 20260507045955 | 35 | 242 | 2.6 | 4.3 | 0.00 | 0.00 | 0.00 | 78 | 1014.9 |
| 20260507045455 | 35 | 235 | 3.5 | 6.1 | 0.00 | 0.00 | 0.00 | 75 | 1014.9 |
| 20260507044955 | 36 | 233 | 5.2 | 6.1 | 0.00 | 0.00 | 0.00 | 74 | 1014.9 |
| 20260507044455 | 37 | 236 | 5.2 | 6.1 | 0.00 | 0.00 | 0.00 | 73 | 1014.6 |
| 20260507043955 | 37 | 229 | 6.1 | 7.0 | 0.00 | 0.00 | 0.00 | 72 | 1014.9 |
| 20260507043455 | 37 | 234 | 6.1 | 7.8 | 0.00 | 0.00 | 0.00 | 73 | 1014.9 |
| 20260507042955 | 37 | 246 | 6.1 | 7.8 | 0.00 | 0.00 | 0.00 | 74 | 1014.9 |
| 20260507042455 | 37 | 225 | 6.1 | 8.7 | 0.00 | 0.00 | 0.00 | 74 | 1014.9 |
| 20260507041955 | 37 | 242 | 7.0 | 8.7 | 0.00 | 0.00 | 0.00 | 73 | 1014.9 |
| 20260507041455 | 37 | 237 | 7.0 | 8.7 | 0.00 | 0.00 | 0.00 | 74 | 1014.9 |
| 20260507040956 | 37 | 260 | 6.1 | 7.8 | 0.00 | 0.00 | 0.00 | 74 | 1014.9 |
| 20260507040456 | 37 | 237 | 6.1 | 7.0 | 0.00 | 0.00 | 0.00 | 73 | 1015.2 |
| 20260507035955 | 37 | 224 | 6.1 | 7.0 | 0.00 | 0.00 | 0.00 | 74 | 1015.2 |
| 20260507035455 | 37 | 240 | 7.0 | 7.8 | 0.00 | 0.00 | 0.00 | 74 | 1015.2 |
| 20260507034956 | 37 | 244 | 7.0 | 8.7 | 0.00 | 0.00 | 0.00 | 73 | 1015.2 |
| 20260507034458 | 37 | 230 | 6.1 | 7.8 | 0.00 | 0.00 | 0.00 | 73 | 1015.2 |
| 20260507033955 | 37 | 220 | 5.2 | 7.8 | 0.00 | 0.00 | 0.00 | 75 | 1015.2 |
| 20260507033456 | 37 | 232 | 6.1 | 7.8 | 0.00 | 0.00 | 0.00 | 74 | 1015.2 |
| 20260507032956 | 37 | 225 | 6.1 | 7.8 | 0.00 | 0.00 | 0.00 | 74 | 1015.2 |
| 20260507032455 | 37 | 236 | 6.1 | 7.0 | 0.00 | 0.00 | 0.00 | 74 | 1015.2 |
| 20260507031955 | 37 | 217 | 5.2 | 7.0 | 0.00 | 0.00 | 0.00 | 75 | 1015.2 |
| 20260507031457 | 38 | 234 | 6.1 | 7.0 | 0.00 | 0.00 | 0.00 | 74 | 1015.2 |
| 20260507030955 | 38 | 223 | 6.1 | 7.0 | 0.00 | 0.00 | 0.00 | 74 | 1015.2 |
| 20260507030455 | 38 | 238 | 6.1 | 7.8 | 0.00 | 0.00 | 0.00 | 73 | 1015.2 |
| 20260507025956 | 38 | 225 | 6.1 | 7.8 | 0.00 | 0.00 | 0.00 | 75 | 1015.2 |
| 20260507025456 | 37 | 231 | 7.0 | 7.8 | 0.00 | 0.00 | 0.00 | 75 | 1015.2 |
| 20260507024956 | 37 | 235 | 5.2 | 7.0 | 0.00 | 0.00 | 0.00 | 76 | 1015.2 |
| 20260507024456 | 37 | 240 | 6.1 | 8.7 | 0.00 | 0.00 | 0.00 | 75 | 1015.2 |
| 20260507023956 | 37 | 246 | 7.0 | 8.7 | 0.00 | 0.00 | 0.00 | 75 | 1015.2 |
| 20260507023455 | 37 | 242 | 6.1 | 7.8 | 0.00 | 0.00 | 0.00 | 76 | 1015.2 |
| 20260507022955 | 37 | 249 | 6.1 | 8.7 | 0.00 | 0.00 | 0.00 | 78 | 1015.2 |
| 20260507022456 | 36 | 239 | 7.8 | 8.7 | 0.00 | 0.00 | 0.00 | 78 | 1015.2 |
| 20260507021955 | 36 | 237 | 5.2 | 7.0 | 0.00 | 0.00 | 0.00 | 77 | 1015.2 |
| 20260507021456 | 36 | 241 | 5.2 | 7.0 | 0.00 | 0.00 | 0.00 | 77 | 1015.2 |
| 20260507020956 | 36 | 234 | 6.1 | 7.0 | 0.00 | 0.00 | 0.00 | 77 | 1015.2 |
| 20260507020455 | 36 | 239 | 6.1 | 7.8 | 0.00 | 0.00 | 0.00 | 76 | 1015.2 |
| 20260507015956 | 36 | 246 | 6.1 | 7.8 | 0.00 | 0.00 | 0.00 | 77 | 1015.2 |
| 20260507015456 | 36 | 241 | 6.1 | 8.7 | 0.00 | 0.00 | 0.00 | 77 | 1015.2 |
| 20260507014955 | 36 | 232 | 7.0 | 9.6 | 0.00 | 0.00 | 0.00 | 78 | 1014.9 |
| 20260507014455 | 36 | 248 | 8.7 | 9.6 | 0.00 | 0.00 | 0.00 | 77 | 1014.9 |
| 20260507013956 | 37 | 248 | 5.2 | 7.8 | 0.00 | 0.00 | 0.00 | 76 | 1014.9 |
| 20260507013456 | 37 | 259 | 7.0 | 8.7 | 0.00 | 0.00 | 0.00 | 74 | 1014.9 |
| 20260507012957 | 37 | 254 | 6.1 | 9.6 | 0.00 | 0.00 | 0.00 | 73 | 1014.9 |
| 20260507012455 | 37 | 242 | 7.0 | 9.6 | 0.00 | 0.00 | 0.00 | 72 | 1014.9 |
| 20260507011955 | 38 | 265 | 7.0 | 9.6 | 0.00 | 0.00 | 0.00 | 71 | 1014.9 |
| 20260507011455 | 38 | 249 | 7.8 | 9.6 | 0.00 | 0.00 | 0.00 | 70 | 1014.9 |
| 20260507010956 | 38 | 257 | 7.8 | 10.4 | 0.00 | 0.00 | 0.00 | 71 | 1014.9 |
| 20260507010458 | 39 | 254 | 7.8 | 9.6 | 0.00 | 0.00 | 0.00 | 71 | 1014.9 |
| 20260507005955 | 39 | 258 | 8.7 | 12.2 | 0.00 | 0.00 | 0.00 | 69 | 1014.9 |
| 20260507005456 | 39 | 251 | 7.8 | 11.3 | 0.00 | 0.00 | 0.00 | 69 | 1014.9 |
| 20260507004955 | 39 | 285 | 7.0 | 12.2 | 0.00 | 0.00 | 0.00 | 68 | 1014.9 |
| 20260507004455 | 39 | 275 | 9.6 | 12.2 | 0.00 | 0.00 | 0.00 | 67 | 1014.9 |
| 20260507003955 | 39 | 270 | 7.8 | 11.3 | 0.00 | 0.00 | 0.00 | 68 | 1014.9 |
| 20260507003455 | 40 | 246 | 7.8 | 11.3 | 0.00 | 0.00 | 0.00 | 68 | 1014.9 |
| 20260507002955 | 40 | 222 | 8.7 | 11.3 | 0.00 | 0.00 | 0.00 | 68 | 1014.9 |
| 20260507002456 | 40 | 278 | 7.8 | 11.3 | 0.00 | 0.00 | 0.00 | 68 | 1014.9 |
| 20260507001955 | 40 | 281 | 8.7 | 12.2 | 0.00 | 0.00 | 0.00 | 67 | 1014.9 |
| 20260507001455 | 40 | 283 | 10.4 | 13.0 | 0.00 | 0.00 | 0.00 | 66 | 1014.9 |
| 20260507000955 | 40 | 283 | 8.7 | 12.2 | 0.00 | 0.00 | 0.00 | 66 | 1014.9 |
| 20260507000455 | 40 | 268 | 9.6 | 13.0 | 0.00 | 0.00 | 0.00 | 68 | 1014.6 |
| 20260506235955 | 40 | 287 | 8.7 | 11.3 | 0.00 | 0.00 | 0.00 | 67 | 1014.9 |
| 20260506235455 | 40 | 300 | 7.8 | 12.2 | 0.00 | 0.00 | 0.00 | 66 | 1014.9 |
| 20260506234956 | 40 | 285 | 6.1 | 13.0 | 0.00 | 0.00 | 0.00 | 67 | 1014.9 |
| 20260506234455 | 41 | 261 | 10.4 | 13.0 | 0.00 | 0.00 | 0.00 | 68 | 1014.9 |
| 20260506233955 | 41 | 268 | 8.7 | 14.8 | 0.00 | 0.00 | 0.00 | 65 | 1014.9 |
| 20260506233455 | 41 | 175 | 9.6 | 12.2 | 0.00 | 0.00 | 0.00 | 65 | 1014.9 |
| 20260506232955 | 41 | 289 | 7.0 | 13.0 | 0.00 | 0.00 | 0.00 | 66 | 1014.9 |
| 20260506232455 | 41 | 284 | 9.6 | 13.0 | 0.00 | 0.00 | 0.00 | 64 | 1014.9 |
| 20260506231956 | 41 | 268 | 9.6 | 15.6 | 0.00 | 0.00 | 0.00 | 64 | 1014.9 |
| 20260506231455 | 41 | 267 | 9.6 | 14.8 | 0.00 | 0.00 | 0.00 | 65 | 1014.6 |
| 20260506230956 | 41 | 278 | 9.6 | 13.9 | 0.00 | 0.00 | 0.00 | 65 | 1014.6 |
| 20260506230457 | 41 | 275 | 11.3 | 14.8 | 0.00 | 0.00 | 0.00 | 65 | 1014.6 |
| 20260506225955 | 41 | 261 | 10.4 | 13.9 | 0.00 | 0.00 | 0.00 | 65 | 1014.6 |
| 20260506225455 | 42 | 251 | 9.6 | 13.9 | 0.00 | 0.00 | 0.00 | 64 | 1014.6 |
| 20260506224955 | 42 | 303 | 8.7 | 13.0 | 0.00 | 0.00 | 0.00 | 63 | 1014.6 |
| 20260506224455 | 42 | 260 | 7.8 | 13.9 | 0.00 | 0.00 | 0.00 | 63 | 1014.6 |
| 20260506223955 | 42 | 254 | 10.4 | 13.0 | 0.00 | 0.00 | 0.00 | 61 | 1014.9 |
| 20260506223455 | 42 | 278 | 9.6 | 13.0 | 0.00 | 0.00 | 0.00 | 62 | 1014.6 |
| 20260506222956 | 41 | 262 | 10.4 | 13.0 | 0.00 | 0.00 | 0.00 | 61 | 1014.6 |
| 20260506222456 | 42 | 293 | 11.3 | 13.9 | 0.00 | 0.00 | 0.00 | 61 | 1014.6 |
| 20260506221956 | 42 | 319 | 8.7 | 12.2 | 0.00 | 0.00 | 0.00 | 64 | 1014.6 |
| 20260506221455 | 42 | 289 | 8.7 | 13.9 | 0.00 | 0.00 | 0.00 | 63 | 1014.6 |
| 20260506220955 | 42 | 286 | 9.6 | 12.2 | 0.00 | 0.00 | 0.00 | 63 | 1014.6 |
| 20260506220455 | 42 | 277 | 9.6 | 13.0 | 0.00 | 0.00 | 0.00 | 61 | 1014.6 |
| 20260506215955 | 42 | 289 | 10.4 | 14.8 | 0.00 | 0.00 | 0.00 | 63 | 1014.6 |
| 20260506215456 | 42 | 303 | 11.3 | 14.8 | 0.00 | 0.00 | 0.00 | 61 | 1014.6 |
| 20260506214956 | 42 | 287 | 8.7 | 13.9 | 0.00 | 0.00 | 0.00 | 62 | 1014.6 |
| 20260506214455 | 42 | 268 | 8.7 | 13.9 | 0.00 | 0.00 | 0.00 | 63 | 1014.2 |
| 20260506213956 | 42 | 231 | 10.4 | 13.9 | 0.00 | 0.00 | 0.00 | 62 | 1014.2 |
| 20260506213457 | 43 | 285 | 7.8 | 14.8 | 0.00 | 0.00 | 0.00 | 61 | 1014.2 |
| 20260506212955 | 43 | 267 | 10.4 | 13.9 | 0.00 | 0.00 | 0.00 | 63 | 1014.2 |
| 20260506212457 | 43 | 268 | 12.2 | 17.4 | 0.00 | 0.00 | 0.00 | 61 | 1014.2 |
| 20260506211955 | 43 | 267 | 13.0 | 17.4 | 0.00 | 0.00 | 0.00 | 62 | 1014.6 |
| 20260506211455 | 43 | 283 | 9.6 | 13.9 | 0.00 | 0.00 | 0.00 | 62 | 1014.2 |
| 20260506210956 | 43 | 261 | 11.3 | 16.5 | 0.00 | 0.00 | 0.00 | 62 | 1014.2 |
| 20260506210456 | 43 | 267 | 13.0 | 16.5 | 0.00 | 0.00 | 0.00 | 62 | 1014.2 |
| 20260506205956 | 43 | 257 | 13.9 | 15.6 | 0.00 | 0.00 | 0.00 | 62 | 1014.2 |
| 20260506205455 | 43 | 259 | 13.0 | 16.5 | 0.00 | 0.00 | 0.00 | 61 | 1014.2 |
| 20260506204959 | 44 | 285 | 10.4 | 15.6 | 0.00 | 0.00 | 0.00 | 62 | 1014.2 |
| 20260506204456 | 43 | 254 | 8.7 | 13.9 | 0.00 | 0.00 | 0.00 | 60 | 1014.2 |
| 20260506203956 | 43 | 287 | 9.6 | 12.2 | 0.00 | 0.00 | 0.00 | 60 | 1014.2 |
| 20260506203455 | 43 | 264 | 11.3 | 14.8 | 0.00 | 0.00 | 0.00 | 59 | 1014.2 |
| 20260506202955 | 44 | 264 | 9.6 | 16.5 | 0.00 | 0.00 | 0.00 | 63 | 1014.2 |
| 20260506202456 | 44 | 256 | 14.8 | 17.4 | 0.00 | 0.00 | 0.00 | 60 | 1014.2 |
| 20260506201957 | 44 | 311 | 8.7 | 13.0 | 0.00 | 0.00 | 0.00 | 58 | 1014.6 |
| 20260506201455 | 44 | 277 | 11.3 | 14.8 | 0.00 | 0.00 | 0.00 | 58 | 1014.6 |
| 20260506200955 | 44 | 302 | 12.2 | 14.8 | 0.00 | 0.00 | 0.00 | 58 | 1014.2 |
| 20260506200455 | 44 | 288 | 10.4 | 13.9 | 0.00 | 0.00 | 0.00 | 60 | 1014.2 |
| 20260506195956 | 44 | 284 | 9.6 | 14.8 | 0.00 | 0.00 | 0.00 | 59 | 1014.2 |
| 20260506195456 | 45 | 254 | 8.7 | 14.8 | 0.00 | 0.00 | 0.00 | 60 | 1014.2 |
| 20260506194956 | 45 | 246 | 8.7 | 13.9 | 0.00 | 0.00 | 0.00 | 60 | 1014.2 |
| 20260506194455 | 44 | 262 | 9.6 | 13.9 | 0.00 | 0.00 | 0.00 | 60 | 1014.2 |
| 20260506193955 | 44 | 280 | 9.6 | 12.2 | 0.00 | 0.00 | 0.00 | 60 | 1014.2 |
| 20260506193455 | 44 | 247 | 11.3 | 17.4 | 0.00 | 0.00 | 0.00 | 59 | 1014.2 |
| 20260506192956 | 44 | 253 | 12.2 | 14.8 | 0.00 | 0.00 | 0.00 | 61 | 1014.2 |
| 20260506192456 | 44 | 297 | 12.2 | 14.8 | 0.00 | 0.00 | 0.00 | 58 | 1014.6 |
| 20260506191956 | 44 | 283 | 10.4 | 15.6 | 0.00 | 0.00 | 0.00 | 59 | 1014.6 |
| 20260506191455 | 44 | 292 | 12.2 | 13.9 | 0.00 | 0.00 | 0.00 | 60 | 1014.6 |
| 20260506190956 | 44 | 251 | 9.6 | 13.0 | 0.00 | 0.00 | 0.00 | 58 | 1014.2 |
| 20260506190456 | 44 | 258 | 9.6 | 13.9 | 0.00 | 0.00 | 0.00 | 59 | 1014.6 |
| 20260506185955 | 43 | 273 | 12.2 | 13.9 | 0.00 | 0.00 | 0.00 | 59 | 1014.6 |
| 20260506185456 | 43 | 244 | 10.4 | 14.8 | 0.00 | 0.00 | 0.00 | 62 | 1014.6 |
| 20260506184955 | 43 | 245 | 9.6 | 13.0 | 0.00 | 0.00 | 0.00 | 61 | 1014.6 |
| 20260506184455 | 42 | 253 | 8.7 | 13.0 | 0.00 | 0.00 | 0.00 | 60 | 1014.2 |
| 20260506183955 | 43 | 254 | 8.7 | 13.9 | 0.00 | 0.00 | 0.00 | 60 | 1014.6 |
| 20260506183455 | 43 | 262 | 7.0 | 11.3 | 0.00 | 0.00 | 0.00 | 61 | 1014.6 |
| 20260506182955 | 44 | 249 | 9.6 | 13.0 | 0.00 | 0.00 | 0.00 | 60 | 1014.6 |
| 20260506182456 | 45 | 287 | 9.6 | 13.0 | 0.00 | 0.00 | 0.00 | 60 | 1014.6 |
| 20260506181956 | 44 | 296 | 7.8 | 13.9 | 0.00 | 0.00 | 0.00 | 62 | 1014.6 |
| 20260506181455 | 44 | 294 | 9.6 | 13.0 | 0.00 | 0.00 | 0.00 | 60 | 1014.6 |
| 20260506180955 | 43 | 260 | 10.4 | 13.9 | 0.00 | 0.00 | 0.00 | 62 | 1014.2 |